Location: Gidding
(52.4333°N, 0.3500°W)
Time: 23:13:39
(UTC+00:00)

Resurs 01 Rocket - Pass Details

Date: 11 December 2025
Orbit: 625 x 637 km, 97.7° (Epoch: 12 April)

Event Time Altitude Azimuth Distance (km) Brightness Sun altitude
Exits shadow 19:11:27 13° 343° (NNW) 1,836 4.1 -29.6°
Drops below altitude 10° 19:11:54 10° 343° (NNW) 2,023 4.3 -29.7°
Sets 19:14:07 0° 345° (NNW) 2,934 5.2 -30.0°
